Wind_Speed
23 25 27 28 29 29 26 11 1 17 9 5 4 2 6 6 4 1 3 3 7 8 7 6 6 8 5 12 10 4 4 3 5 13 17 22 17 11 22 14 23 19 16 13
24 25 26 27 25 24 25 9 6 12 9 3 4 5 4 4 4 4 3 3 5 5 8 4 8 6 8 13 9 6 7 3 5 11 11 18 11 17 17 24 21 23 17 14
24 25 25 23 22 18 16 6 3 7 13 7 3 5 4 6 7 2 4 4 2 3 6 5 2 6 9 14 9 8 7 4 7 12 17 11 10 12 16 20 21 21 21 21
25 24 22 19 17 13 10 7 3 4 4 6 6 6 5 7 6 7 8 4 7 6 6 5 8 7 6 12 13 9 7 7 8 14 20 24 26 26 26 20 23 22 22 22
23 21 18 15 13 12 9 4 3 3 2 3 5 1 2 6 6 2 5 9 11 9 7 10 7 7 8 11 12 11 8 6 9 18 23 23 28 29 26 23 24 19 17 15
20 18 16 12 10 9 5 3 1 0 2 3 3 3 4 8 14 8 15 11 1 5 10 17 21 17 17 14 9 12 9 5 7 21 17 17 22 30 25 21 17 21 22 15
20 18 15 10 7 5 4 3 3 0 2 2 4 8 14 11 11 7 12 13 5 6 7 11 21 25 25 25 23 19 9 11 7 14 15 11 9 8 26 12 7 2 8 3
21 18 14 7 6 4 4 4 1 1 2 4 7 11 8 13 10 8 9 7 9 16 11 4 6 4 6 15 23 21 18 8 6 5 7 12 11 5 23 16 8 10 6 5
21 16 10 6 4 4 2 3 1 3 2 1 6 5 9 4 5 6 3 11 9 3 3 3 4 4 4 2 2 19 18 13 7 4 7 5 5 4 6 8 6 12 10 11
17 12 6 4 3 5 5 4 1 2 3 4 7 2 5 6 4 4 7 13 5 2 2 3 3 2 2 4 8 8 9 5 13 13 8 9 11 11 8 6 4 9 10 13
13 11 9 5 5 6 6 4 3 1 3 7 6 9 6 6 4 2 8 5 1 3 3 3 3 3 3 2 3 6 6 6 7 8 6 9 23 5 4 6 8 6 12 18
12 11 10 7 10 7 5 3 1 2 5 3 7 6 6 6 9 7 4 4 5 3 3 2 3 2 3 7 4 3 2 3 2 2 1 16 8 19 14 10 9 13 16 19
9 9 9 6 11 8 6 4 3 4 3 5 5 6 7 9 4 3 2 4 6 4 7 4 2 3 3 4 3 3 2 6 2 3 4 13 10 16 16 14 12 12 15 19
7 8 7 6 5 6 6 6 7 5 1 2 3 10 7 11 8 4 4 7 6 5 4 3 2 3 9 4 3 3 5 8 6 4 8 17 17 20 20 18 14 14 13 16
6 5 7 4 4 5 1 3 5 5 0 2 3 5 5 8 12 10 10 9 5 3 3 4 4 4 5 5 4 4 13 6 5 3 17 9 13 24 18 19 18 15 16 14
6 5 3 3 3 6 4 3 2 7 4 3 2 4 2 7 10 10 10 11 12 7 4 3 5 5 9 3 3 21 25 25 23 9 23 12 16 15 17 17 18 16 13 15
7 6 5 5 6 5 3 3 7 8 4 2 4 3 3 3 7 7 6 10 9 6 3 6 5 4 8 2 3 21 25 24 24 29 27 20 24 19 19 18 16 14 11 10
8 7 7 7 8 6 3 6 8 5 3 2 2 2 1 0 1 3 6 5 6 9 3 4 5 7 5 3 18 17 24 21 24 28 29 25 19 20 26 21 18 13 10 12
9 8 8 5 2 3 6 9 5 5 3 2 1 2 3 1 0 1 3 4 3 5 4 4 4 3 4 7 13 18 18 18 21 22 22 23 24 23 26 23 22 19 15 14
9 6 2 2 4 11 5 2 2 1 2 3 3 2 1 2 4 2 3 1 1 2 3 4 4 2 4 9 10 8 14 16 20 23 25 23 24 25 25 24 22 20 14 10
6 3 3 7 9 2 1 1 1 0 3 4 4 5 3 2 2 2 1 2 1 1 1 3 3 2 4 11 12 8 11 12 16 18 20 23 22 22 22 24 23 22 21 21
8 7 7 4 3 2 1 1 1 2 2 3 2 1 3 2 2 2 3 2 2 2 3 1 1 3 4 10 12 7 6 9 10 14 17 19 22 23 25 25 25 23 22 21
7 2 2 2 1 3 2 3 3 3 4 2 2 4 2 2 3 1 2 2 3 4 1 1 2 4 3 7 10 10 6 4 7 11 14 15 16 22 26 24 22 23 26 21
2 1 5 1 2 3 3 3 4 6 8 10 7 2 2 3 3 1 1 2 3 2 1 1 1 1 2 4 6 8 8 4 4 5 10 12 15 16 16 19 20 21 23 24
2 1 2 4 5 7 8 9 8 9 9 7 1 2 3 2 2 1 2 3 1 1 1 1 2 7 4 4 6 7 7 4 5 3 6 9 11 15 17 18 16 15 19 19
3 4 4 5 4 5 4 6 8 7 8 3 2 1 1 2 1 1 2 1 1 1 2 3 8 4 3 6 7 7 5 4 3 3 4 6 9 11 13 13 15 14 12 16
3 5 9 12 13 10 9 8 8 7 3 2 3 3 2 1 2 1 2 2 1 2 2 4 2 3 6 8 7 4 4 5 3 4 5 6 5 9 9 8 9 14 14 13
Wind_Direction
347 344 344 345 346 349 360 5 49 359 5 46 35 39 332 321 291 326 271 243 233 225 197 208 220 218 228 171 166 191 186 178 281 278 275 272 276 281 243 225 228 234 263 236
343 342 343 344 348 354 356 358 341 11 33 63 29 336 321 291 313 343 316 269 231 205 199 230 220 200 190 173 174 182 173 188 294 294 243 233 231 245 245 251 237 233 230 222
340 341 342 342 347 358 1 10 5 20 52 65 46 8 351 334 322 282 344 310 348 231 223 222 245 204 182 199 199 161 177 216 243 260 289 320 299 283 295 270 226 236 231 233
340 340 341 344 348 13 16 29 64 26 10 20 1 351 347 333 346 359 347 290 243 243 241 221 231 227 205 199 199 158 185 241 244 260 272 282 277 274 275 271 257 227 232 228
342 344 347 345 352 22 49 49 18 6 320 302 321 274 327 315 322 286 292 264 256 237 236 241 262 253 257 248 203 191 180 253 291 275 278 270 266 259 257 254 251 250 252 240
349 350 349 350 357 18 61 26 16 324 5 316 303 344 335 321 313 251 247 278 338 273 247 254 257 266 274 263 259 209 185 220 250 266 288 287 258 243 237 242 231 216 217 233
349 349 350 355 347 15 17 352 345 118 352 301 332 311 321 311 310 291 297 286 273 245 283 271 270 267 259 245 238 234 204 202 237 274 287 243 236 236 199 198 104 134 173 293
347 347 345 353 357 355 348 347 4 178 273 275 296 354 304 316 313 329 295 294 281 296 279 258 268 241 233 231 231 218 217 184 240 256 267 295 144 111 153 167 82 37 43 344
347 348 2 18 1 26 13 31 290 257 283 241 304 313 304 321 326 315 265 326 322 285 269 233 248 223 241 189 187 201 196 199 209 229 265 260 104 317 245 219 95 14 18 11
358 2 18 61 81 78 78 81 33 251 262 299 321 293 304 314 286 289 297 338 319 311 279 261 278 256 195 222 175 165 169 175 218 237 242 271 339 298 219 210 93 349 14 17
15 26 41 78 105 108 96 102 48 328 274 306 306 318 301 298 301 300 306 317 320 306 311 311 334 300 329 327 91 143 164 206 205 216 234 249 324 195 135 100 55 20 22 25
27 46 40 101 107 105 101 125 189 233 250 305 351 3 338 339 333 307 300 297 287 337 312 330 308 324 332 335 41 15 186 274 273 216 264 286 5 64 75 61 44 12 20 28
33 53 56 112 114 97 71 40 42 45 313 310 8 359 8 8 342 325 288 282 331 312 330 304 315 336 326 355 34 295 329 344 298 275 233 329 27 31 38 26 18 14 30 37
40 56 78 81 104 104 73 47 31 35 27 329 4 8 23 25 39 26 318 278 312 313 337 345 347 344 357 340 297 335 332 322 303 259 339 347 351 3 8 8 15 20 33 35
27 46 65 69 6 340 329 18 14 31 351 302 281 314 14 24 27 32 41 43 24 27 48 16 19 357 340 327 309 5 1 351 357 333 331 312 302 336 357 4 2 0 1 17
359 22 32 52 28 352 341 349 293 342 336 322 306 291 287 324 336 339 4 35 37 52 51 24 0 359 357 345 23 359 2 4 10 339 339 330 336 342 353 353 353 351 342 355
329 329 324 335 350 340 326 314 312 320 319 280 289 283 265 302 230 330 3 34 41 52 54 22 346 340 6 5 7 356 358 359 1 7 13 0 4 351 359 1 351 348 345 358
326 309 305 306 316 320 297 307 316 306 307 266 275 265 239 336 325 323 344 353 19 31 37 2 358 337 354 29 351 357 2 360 9 10 22 21 22 18 14 19 20 22 17 344
330 316 308 304 296 317 307 311 304 297 254 280 249 284 356 170 156 27 27 24 38 358 19 19 344 342 40 337 342 358 4 9 3 13 16 23 24 23 29 36 30 27 14 18
325 321 315 278 302 315 332 7 348 295 268 248 248 251 287 222 179 145 121 81 61 29 7 336 33 324 321 353 354 4 8 10 13 14 13 15 21 26 29 32 33 32 28 23
334 313 276 303 316 344 348 308 281 231 258 215 241 219 282 225 297 116 161 144 80 89 3 344 333 305 355 4 6 4 19 31 35 35 33 34 32 26 29 32 29 28 25 26
312 294 301 313 347 316 283 332 255 225 300 234 235 273 234 221 216 207 179 124 192 108 158 108 286 282 337 358 359 3 6 20 36 41 43 40 34 36 36 34 31 28 24 24
323 330 317 331 315 22 64 322 299 311 291 265 287 301 187 172 196 125 186 173 68 137 116 236 256 326 340 351 354 353 329 344 16 28 33 34 34 33 32 30 30 30 33 29
309 321 324 2 295 244 212 241 267 290 273 311 308 182 213 177 179 155 162 84 175 126 68 268 258 307 350 6 355 348 342 309 326 1 23 25 25 23 20 20 21 26 29 31
264 227 260 231 263 270 276 284 290 313 304 316 220 162 203 154 149 64 128 164 92 210 189 247 296 310 297 341 355 352 338 289 258 300 342 359 9 15 12 6 5 11 26 33
228 236 251 246 272 286 282 284 293 316 325 302 281 224 160 90 348 197 105 50 197 184 230 276 312 324 275 317 328 347 355 333 284 284 289 320 345 349 356 0 4 7 5 23
232 247 255 258 276 266 273 276 287 309 310 344 313 308 10 124 246 120 181 201 177 170 302 323 350 334 327 320 309 309 341 353 4 9 11 359 354 11 8 11 2 7 11 8
Height
1527 1523 1517 1511 1505 1499 1494 1489 1489 1489 1486 1489 1496 1494 1500 1498 1492 1492 1490 1489 1487 1487 1488 1489 1491 1490 1489 1497 1499 1500 1501 1504 1497 1483 1478 1475 1479 1476 1452 1451 1454 1446 1446 1437
1525 1521 1516 1511 1506 1501 1496 1494 1494 1492 1488 1492 1498 1501 1499 1498 1494 1492 1490 1488 1488 1489 1488 1491 1489 1490 1492 1495 1496 1498 1501 1503 1491 1472 1458 1460 1467 1462 1465 1444 1439 1437 1448 1443
1524 1519 1515 1510 1506 1503 1500 1498 1496 1497 1497 1505 1506 1507 1502 1497 1495 1493 1493 1491 1489 1489 1488 1489 1488 1489 1493 1494 1495 1498 1500 1498 1493 1486 1472 1476 1479 1466 1466 1454 1433 1434 1424 1434
1521 1517 1513 1509 1506 1504 1503 1502 1507 1508 1505 1504 1507 1506 1505 1501 1497 1497 1495 1492 1492 1492 1490 1488 1487 1487 1489 1492 1493 1495 1497 1493 1490 1489 1485 1482 1479 1475 1469 1466 1440 1423 1423 1420
1519 1515 1512 1509 1506 1505 1506 1507 1509 1509 1509 1509 1508 1507 1505 1503 1500 1500 1496 1494 1491 1493 1490 1484 1481 1483 1483 1481 1486 1489 1493 1487 1487 1484 1476 1476 1468 1461 1458 1455 1445 1429 1422 1413
1517 1513 1511 1508 1507 1506 1507 1508 1509 1510 1510 1509 1508 1506 1505 1502 1500 1495 1492 1491 1492 1490 1487 1487 1484 1482 1483 1483 1481 1482 1489 1491 1491 1473 1467 1464 1447 1434 1440 1439 1426 1421 1416 1409
1516 1512 1510 1508 1506 1507 1507 1507 1508 1508 1509 1509 1507 1506 1504 1500 1497 1494 1491 1488 1487 1485 1483 1482 1480 1476 1474 1474 1473 1479 1483 1489 1488 1470 1473 1454 1412 1405 1414 1421 1425 1416 1412 1417
1514 1510 1508 1507 1506 1506 1506 1506 1508 1508 1508 1508 1506 1504 1500 1495 1494 1491 1487 1486 1485 1482 1480 1477 1471 1467 1467 1458 1461 1465 1473 1482 1480 1474 1461 1443 1413 1408 1407 1406 1425 1424 1419 1418
1512 1508 1507 1506 1505 1505 1506 1506 1507 1508 1508 1507 1506 1502 1498 1495 1492 1488 1486 1484 1479 1479 1475 1471 1463 1457 1454 1446 1446 1454 1466 1473 1480 1473 1457 1425 1415 1417 1418 1415 1417 1426 1422 1417
1510 1507 1505 1506 1505 1505 1506 1506 1506 1506 1506 1505 1504 1501 1499 1496 1495 1492 1486 1483 1479 1476 1472 1465 1458 1452 1458 1446 1450 1457 1463 1470 1469 1466 1460 1442 1423 1417 1414 1408 1427 1427 1425 1421
1510 1508 1506 1506 1506 1506 1506 1506 1506 1506 1505 1504 1502 1500 1498 1495 1494 1493 1487 1481 1479 1475 1471 1466 1462 1456 1453 1448 1453 1454 1457 1459 1455 1457 1453 1440 1427 1416 1411 1425 1427 1426 1424 1420
1512 1509 1508 1506 1506 1506 1506 1505 1505 1505 1505 1504 1501 1499 1497 1494 1492 1490 1489 1487 1483 1480 1478 1473 1469 1461 1459 1453 1447 1455 1450 1455 1447 1448 1442 1437 1432 1423 1425 1426 1426 1425 1422 1421
1513 1511 1510 1509 1507 1508 1507 1506 1505 1505 1504 1501 1499 1498 1496 1493 1490 1490 1490 1485 1484 1480 1480 1477 1473 1467 1467 1459 1457 1456 1454 1450 1448 1444 1439 1435 1428 1428 1427 1426 1426 1425 1424 1423
1515 1512 1511 1511 1510 1509 1508 1507 1505 1504 1504 1503 1501 1497 1496 1493 1490 1488 1487 1485 1483 1480 1478 1478 1475 1473 1471 1464 1466 1461 1459 1455 1451 1443 1436 1426 1426 1430 1429 1427 1426 1425 1425 1424
1516 1514 1512 1511 1511 1510 1509 1507 1506 1504 1507 1503 1500 1498 1497 1495 1493 1490 1487 1485 1482 1481 1480 1480 1480 1480 1477 1471 1464 1463 1461 1458 1454 1447 1446 1443 1435 1432 1431 1429 1428 1428 1426 1424
1517 1515 1514 1512 1510 1510 1508 1507 1507 1505 1503 1503 1500 1497 1496 1494 1493 1492 1489 1485 1483 1482 1484 1486 1485 1484 1482 1475 1471 1473 1467 1461 1459 1455 1447 1439 1437 1433 1433 1432 1430 1428 1428 1427
1517 1515 1513 1512 1511 1510 1510 1510 1507 1504 1503 1503 1500 1496 1495 1494 1495 1492 1490 1488 1486 1485 1487 1487 1486 1485 1484 1481 1477 1477 1471 1466 1459 1453 1445 1439 1437 1436 1435 1432 1432 1429 1428 1429
1515 1513 1511 1510 1509 1508 1507 1506 1505 1503 1503 1502 1500 1495 1495 1495 1494 1493 1491 1490 1489 1489 1491 1490 1489 1487 1486 1486 1484 1480 1476 1470 1465 1456 1450 1449 1446 1441 1432 1430 1433 1430 1431 1431
1513 1510 1509 1507 1507 1506 1506 1503 1502 1502 1506 1502 1501 1498 1493 1495 1495 1494 1494 1493 1494 1494 1494 1493 1493 1492 1492 1491 1487 1481 1478 1476 1471 1466 1461 1457 1453 1448 1442 1436 1434 1432 1434 1433
1511 1509 1508 1506 1506 1503 1503 1502 1502 1502 1502 1501 1499 1497 1494 1496 1494 1494 1496 1496 1496 1496 1498 1497 1498 1494 1493 1490 1487 1485 1481 1477 1473 1468 1462 1459 1455 1451 1448 1444 1440 1439 1441 1438
1511 1509 1507 1506 1504 1503 1503 1503 1503 1502 1500 1498 1496 1495 1494 1493 1492 1492 1494 1496 1497 1500 1500 1497 1499 1494 1492 1490 1487 1485 1483 1480 1477 1473 1468 1462 1460 1457 1455 1453 1450 1447 1443 1438
1510 1508 1506 1505 1505 1504 1503 1501 1501 1499 1495 1493 1493 1492 1491 1491 1491 1491 1493 1493 1497 1495 1499 1498 1494 1493 1490 1489 1487 1486 1484 1482 1481 1478 1475 1471 1467 1462 1458 1454 1452 1449 1445 1442
1508 1507 1506 1506 1505 1505 1502 1508 1500 1496 1493 1491 1491 1490 1490 1490 1491 1491 1491 1488 1491 1498 1495 1498 1494 1491 1490 1489 1487 1485 1483 1483 1480 1478 1475 1473 1470 1465 1462 1460 1459 1456 1451 1447
1508 1507 1508 1505 1502 1500 1498 1497 1496 1494 1491 1489 1488 1488 1489 1488 1488 1488 1485 1492 1492 1491 1495 1493 1490 1490 1490 1489 1488 1486 1484 1482 1481 1480 1479 1477 1474 1472 1469 1466 1465 1462 1457 1454
1507 1507 1507 1502 1498 1496 1494 1494 1492 1490 1488 1486 1486 1485 1486 1485 1484 1486 1488 1489 1494 1493 1490 1488 1489 1488 1488 1488 1487 1486 1484 1483 1482 1481 1480 1478 1476 1474 1473 1472 1469 1466 1462 1461
1505 1504 1501 1497 1497 1493 1492 1491 1489 1487 1486 1485 1484 1482 1481 1483 1484 1483 1484 1487 1490 1488 1490 1488 1487 1486 1487 1487 1486 1485 1483 1482 1482 1482 1482 1481 1479 1477 1475 1473 1470 1468 1467 1463
1502 1498 1496 1495 1493 1491 1489 1488 1487 1485 1485 1484 1485 1481 1482 1485 1481 1482 1486 1484 1485 1487 1488 1487 1486 1486 1486 1485 1484 1484 1483 1482 1481 1481 1481 1480 1479 1478 1476 1475 1473 1470 1466 1463